Simultaneous Nadir Overpasses (SNOs) Predictions

Prediction of SNOs between FY3D and AQUA Satellite Orbit:

Table of predicted SNOs for the next 14.0 days since TLE Epoch: 6/12/2021
Index Date (FY3D) Time (FY3D) Lat,Lon (FY3D) SZA (FY3D ) Date (AQUA) Time (AQUA) Lat,Lon (AQUA) SZA (AQUA ) Distance(km) Time Diff (sec)
1 06/12/2021 18:04:37 -75.60, 76.45 127.29 06/12/2021 18:05:51 -75.86, 77.66 127.13 43.91 74
2 06/12/2021 18:46:29 46.30, -86.46 26.00 06/12/2021 18:46:38 46.29, -86.44 26.01 2.15 9
3 06/12/2021 19:38:14 -49.97, 79.31 151.26 06/12/2021 19:37:05 -50.02, 79.73 151.18 30.61 69
4 06/15/2021 10:27:37 -75.17, 83.04 105.29 06/15/2021 10:28:50 -75.60, 80.64 105.12 83.06 73
5 06/15/2021 11:03:23 48.32, 28.65 27.32 06/15/2021 11:03:41 48.31, 28.66 27.34 1.35 18
6 06/15/2021 11:54:23 -49.40,-164.49 151.87 06/15/2021 11:53:24 -49.43,-164.14 151.81 25.69 59
7 06/18/2021 03:20:14 50.22, 143.75 28.67 06/18/2021 03:20:41 50.22, 143.76 28.70 0.56 27
8 06/18/2021 04:10:31 -48.82, -48.30 152.42 06/18/2021 04:09:42 -48.85, -48.02 152.38 20.63 49
9 06/20/2021 19:37:02 51.90,-101.09 29.94 06/20/2021 19:37:38 51.90,-101.10 29.98 0.25 36
10 06/20/2021 20:26:40 -48.25, 67.88 152.92 06/20/2021 20:26:01 -48.27, 68.09 152.89 15.42 39
11 06/23/2021 11:53:48 53.45, 14.07 31.21 06/23/2021 11:54:33 53.46, 14.05 31.25 1.09 45
12 06/23/2021 12:42:49 -47.68,-175.93 153.38 06/23/2021 12:42:20 -47.71,-175.80 153.35 10.14 29
13 06/26/2021 04:10:31 54.84, 129.28 32.42 06/26/2021 04:11:25 54.84, 129.25 32.46 2.03 54



Historial Predications of SNOs between FY3D and AQUA
